Weather History for Lowell, ID

Change the Weather History Date:

Wednesday, March 13, 2013

  Actual Average Record
Temperature  
Mean Temperature 47 °F -  
Max Temperature 55 °F 50 °F 66 °F (2011)
Min Temperature 39 °F 31 °F 23 °F (2009)
Degree Days  
Heating Degree Days 18    
Moisture  
Dew Point 40 °F    
Average Humidity 83    
Maximum Humidity 93    
Minimum Humidity 60    
Precipitation  
Precipitation 0.00 in - - ()
Sea Level Pressure  
Sea Level Pressure 30.26 in    
Wind  
Wind Speed 0 mph (North)    
Max Wind Speed 4 mph    
Max Gust Speed -    
Averages and records for this station are not official NWS values.
T = Trace of Precipitation, MM = Missing Value Source: NWS Daily Summary

Daily Weather History Graph

Daily Weather History Graph

Search for Another Location

Airport:

Trip Planner

Search our weather history database for the weather conditions in past years. The results will help you decide how hot, cold, wet, or windy it might be!

Date:

Astronomy

Mar. 13, 2013 Rise Set
Actual Time 7:58 AM MDT 7:45 PM MDT
Civil Twilight 7:28 AM MDT 8:15 PM MDT
Nautical Twilight 6:53 AM MDT 8:50 PM MDT
Astronomical Twilight 6:18 AM MDT 9:26 PM MDT
Moon 8:31 AM MDT (3/13) 10:17 PM MDT (3/13)
Length of Visible Light 12h 47m
Length of Day
11h 47m
Waxing Crescent, 4% of the Moon is Illuminated
Mar 13
Waxing Crescent
Mar 19
First Quarter
Mar 27
Full
Apr 2
Last Quarter
Apr 10
New

Hourly Weather History & Observations

Time (MDT) Temp. Windchill Dew Point Humidity Pressure Visibility Wind Dir Wind Speed Gust Speed Precip Events Conditions
12:52 AM 41.0 °F - 39.0 °F 93% 30.26 in - Calm Calm - N/A   Unknown
1:52 AM 41.0 °F - 39.0 °F 93% 30.26 in - Calm Calm - N/A   Unknown
2:52 AM 39.9 °F - 37.9 °F 93% 30.25 in - Calm Calm - N/A   Unknown
3:52 AM 39.9 °F - 37.9 °F 93% 30.25 in - Calm Calm - N/A   Unknown
4:52 AM 39.9 °F - 37.9 °F 93% 30.24 in - Calm Calm - N/A   Unknown
5:52 AM 39.9 °F - 37.9 °F 93% 30.25 in - Calm Calm - N/A   Unknown
6:52 AM 39.0 °F - 37.0 °F 93% 30.28 in - Calm Calm - N/A   Unknown
7:52 AM 39.9 °F - 37.0 °F 89% 30.28 in - Calm Calm - N/A   Unknown
8:52 AM 39.9 °F - 37.0 °F 89% 30.30 in - Calm Calm - N/A   Unknown
9:52 AM 41.0 °F - 37.9 °F 89% 30.31 in - Calm Calm - N/A   Unknown
10:52 AM 44.1 °F - 39.9 °F 85% 30.30 in - Calm Calm - N/A   Unknown
11:52 AM 46.9 °F - 39.9 °F 77% 30.30 in - Calm Calm - N/A   Unknown
12:52 PM 48.0 °F - 39.9 °F 74% 30.30 in - Calm Calm - N/A   Unknown
1:52 PM 50.0 °F - 41.0 °F 71% 30.29 in - Calm Calm - N/A   Unknown
2:52 PM 53.1 °F - 42.1 °F 66% 30.26 in - Calm Calm - N/A   Unknown
3:52 PM 55.9 °F - 42.1 °F 60% 30.23 in - Calm Calm - N/A   Unknown
4:52 PM 54.0 °F - 43.0 °F 66% 30.23 in - Calm Calm - N/A   Unknown
5:52 PM 51.1 °F - 43.0 °F 74% 30.22 in - Calm Calm - N/A   Unknown
6:52 PM 48.0 °F - 42.1 °F 80% 30.22 in - Calm Calm - N/A   Unknown
7:52 PM 45.0 °F - 39.9 °F 82% 30.22 in - Calm Calm - N/A   Unknown
8:52 PM 44.1 °F - 39.9 °F 85% 30.23 in - Calm Calm - N/A   Unknown
9:52 PM 44.1 °F 42.5 °F 39.9 °F 85% 30.25 in - North 3.5 mph - N/A   Unknown
10:52 PM 43.0 °F - 39.9 °F 89% 30.27 in - Calm Calm - N/A   Unknown
11:52 PM 43.0 °F 41.3 °F 39.9 °F 89% 30.26 in - Variable 3.5 mph - N/A   Unknown